This is the latest recevied weather packets stored in our database for station/object WA7CUG. If no packets are shown the sender has not sent any weather packets the latest 10 day(s).
| Time | Temp. | Humidity | Pressure | Rain* | Wind** | Luminosity | Snow |
|---|---|---|---|---|---|---|---|
| 1778153035 | 12.22° C | 64% | 1014.2 hPa | 0 mm | - | 0 W/m² | - |
| 1778152732 | 12.78° C | 62% | 1014.2 hPa | 0 mm | - | 0 W/m² | - |
| 1778152429 | 13.89° C | 60% | 1014 hPa | 0 mm | - | 0 W/m² | - |
| 1778152125 | 13.33° C | 59% | 1014.1 hPa | 0 mm | - | 0 W/m² | - |
| 1778151821 | 12.78° C | 56% | 1013.7 hPa | 0 mm | - | 0 W/m² | - |
| 1778151518 | 12.78° C | 60% | 1013.9 hPa | 0 mm | - | 0 W/m² | - |
| 1778151215 | 13.89° C | 58% | 1013.9 hPa | 0 mm | - | 0 W/m² | - |
| 1778150912 | 15° C | 51% | 1013.5 hPa | 0 mm | - | 0 W/m² | - |
| 1778150608 | 15° C | 50% | 1013.9 hPa | 0 mm | - | 0 W/m² | - |
| 1778150304 | 14.44° C | 53% | 1013.8 hPa | 0 mm | - | 0 W/m² | - |
| 1778150001 | 15.56° C | 52% | 1013.9 hPa | 0 mm | - | 0 W/m² | - |
| 1778149697 | 14.44° C | 50% | 1013.7 hPa | 0 mm | - | 0 W/m² | - |
| 1778149394 | 14.44° C | 53% | 1013.7 hPa | 0 mm | - | 0 W/m² | - |
| 1778149091 | 14.44° C | 50% | 1013.5 hPa | 0 mm | - | 0 W/m² | - |
| 1778148791 | 13.89° C | 54% | 1013.6 hPa | 0 mm | - | 0 W/m² | - |
| 1778148488 | 15° C | 51% | 1013.4 hPa | 0 mm | - | 0 W/m² | - |
| 1778148186 | 16.11° C | 48% | 1013.4 hPa | 0 mm | - | 0 W/m² | - |
| 1778147884 | 16.11° C | 47% | 1013.4 hPa | 0 mm | - | 0 W/m² | - |
| 1778147580 | 16.11° C | 47% | 1013.5 hPa | 0 mm | - | 0 W/m² | - |
| 1778147277 | 16.11° C | 49% | 1013.4 hPa | 0 mm | - | 0 W/m² | - |
| 1778146974 | 16.11° C | 47% | 1013.4 hPa | 0 mm | - | 0 W/m² | - |
| 1778146671 | 16.67° C | 46% | 1013.4 hPa | 0 mm | - | 0 W/m² | - |
| 1778146369 | 14.44° C | 51% | 1013.5 hPa | 0 mm | - | 0 W/m² | - |
| 1778146067 | 15° C | 50% | 1013 hPa | 0 mm | - | 0 W/m² | - |
| 1778145762 | 16.67° C | 45% | 1013 hPa | 0 mm | - | 0 W/m² | - |
* Rain latest hour (hover to see other rain measurements)
** Current wind speed in m/s (hover to see current wind gust speed)